DLH24C KJFK-EDDM

Flight info

Callsign DLH24C
Flight time 1h 59m
Altitude 35000
Route BETTE DCT ACK DCT BRADD N427A ELSIR/M083F370 DCT 50N050W 51N040W 52N030W 53N020W DCT MALOT/N0478F370 DCT GISTI DCT SLANY/N0478F390 DCT OKSAW DCT KONAN UL607 FERDI DCT REMBA UL607 SPI DCT MOVUM T109 HAREM/N0481F350 T104 ELMOX/N0458F270 T104 ROKIL ROKIL1A
Aircraft A346/H-SDE2E3FGHIJ3J4J5M1RWXY/LB1D1

Departure

Time 2026-05-09 08:03
Airport John F. Kennedy International Airport (KJFK)

Arrival

Time 2026-05-09 10:02
Airport Munich Airport (EDDM)
Time Latitude Longitude Altitude Speed Heading
2026-05-09 07:32 40.64077 -73.78097 29 ft 0 kts 239°
2026-05-09 07:38 40.64070 -73.78111 29 ft 0 kts 239°
2026-05-09 07:51 40.64082 -73.78085 29 ft 4 kts 239°
2026-05-09 07:51 40.64094 -73.78058 27 ft 4 kts 235°
2026-05-09 07:51 40.64110 -73.78038 25 ft 4 kts 204°
2026-05-09 07:52 40.64125 -73.78034 26 ft 4 kts 167°
2026-05-09 07:52 40.64148 -73.78047 26 ft 4 kts 149°
2026-05-09 07:52 40.64166 -73.78062 27 ft 0 kts 151°
2026-05-09 07:54 40.64162 -73.78059 27 ft 2 kts 151°
2026-05-09 07:54 40.64143 -73.78045 26 ft 5 kts 151°
2026-05-09 07:55 40.64106 -73.78018 28 ft 7 kts 151°
2026-05-09 07:55 40.64053 -73.77978 29 ft 10 kts 150°
2026-05-09 07:55 40.63983 -73.77949 29 ft 12 kts 171°
2026-05-09 07:55 40.63883 -73.77931 29 ft 15 kts 173°
2026-05-09 07:56 40.63780 -73.77915 29 ft 16 kts 173°
2026-05-09 07:56 40.63667 -73.77897 29 ft 16 kts 174°
2026-05-09 07:56 40.63576 -73.77856 26 ft 13 kts 135°
2026-05-09 07:56 40.63564 -73.77803 23 ft 6 kts 66°
2026-05-09 07:57 40.63598 -73.77756 28 ft 9 kts 35°
2026-05-09 07:57 40.63671 -73.77698 28 ft 16 kts 31°
2026-05-09 07:57 40.63779 -73.77614 28 ft 20 kts 30°
2026-05-09 07:57 40.63902 -73.77518 28 ft 22 kts 31°
2026-05-09 07:58 40.64037 -73.77411 29 ft 23 kts 31°
2026-05-09 07:58 40.64180 -73.77300 29 ft 24 kts 30°
2026-05-09 07:58 40.64322 -73.77190 29 ft 15 kts 31°
2026-05-09 07:58 40.64397 -73.77125 29 ft 10 kts 44°
2026-05-09 07:59 40.64427 -73.77035 28 ft 12 kts 64°
2026-05-09 07:59 40.64500 -73.76986 28 ft 13 kts 21°
2026-05-09 07:59 40.64586 -73.76927 28 ft 14 kts 28°
2026-05-09 07:59 40.64675 -73.76859 28 ft 15 kts 31°
2026-05-09 08:00 40.64769 -73.76785 29 ft 16 kts 31°
2026-05-09 08:00 40.64865 -73.76709 30 ft 16 kts 31°
2026-05-09 08:00 40.64965 -73.76630 29 ft 17 kts 31°
2026-05-09 08:00 40.65065 -73.76552 30 ft 13 kts 33°
2026-05-09 08:01 40.65084 -73.76448 30 ft 13 kts 110°
2026-05-09 08:01 40.65047 -73.76372 31 ft 9 kts 140°
2026-05-09 08:01 40.64999 -73.76377 31 ft 3 kts 206°
2026-05-09 08:01 40.64997 -73.76378 31 ft 0 kts 209°
2026-05-09 08:02 40.64995 -73.76379 31 ft 3 kts 209°
2026-05-09 08:02 40.64848 -73.76493 30 ft 53 kts 211°
2026-05-09 08:02 40.64366 -73.76869 28 ft 107 kts 211°
2026-05-09 08:03 40.63585 -73.77480 30 ft 153 kts 210°
2026-05-09 08:03 40.62564 -73.78281 87 ft 183 kts 210°
2026-05-09 08:03 40.61504 -73.79111 644 ft 177 kts 209°
2026-05-09 08:03 40.60478 -73.79888 1279 ft 171 kts 210°
2026-05-09 08:04 40.59402 -73.80312 1806 ft 171 kts 176°
2026-05-09 08:04 40.58275 -73.79751 2182 ft 180 kts 142°
2026-05-09 08:04 40.57624 -73.78301 2472 ft 197 kts 101°
2026-05-09 08:04 40.57561 -73.76432 2772 ft 211 kts 94°
2026-05-09 08:05 40.57542 -73.74424 3020 ft 228 kts 94°
2026-05-09 08:05 40.57518 -73.72260 3337 ft 244 kts 94°
2026-05-09 08:05 40.57483 -73.69946 3659 ft 261 kts 94°
2026-05-09 08:05 40.57438 -73.67462 4005 ft 279 kts 94°
2026-05-09 08:06 40.57388 -73.64849 4512 ft 289 kts 94°
2026-05-09 08:06 40.57338 -73.62213 5114 ft 296 kts 94°
2026-05-09 08:06 40.57284 -73.59467 5817 ft 300 kts 94°
2026-05-09 08:06 40.57138 -73.52674 7550 ft 309 kts 93°
2026-05-09 08:07 40.56771 -73.35742 10928 ft 347 kts 92°
2026-05-09 08:07 40.56283 -73.14914 12984 ft 421 kts 92°
2026-05-09 08:07 40.58245 -72.91565 16415 ft 448 kts 69°
2026-05-09 08:07 40.64543 -72.67552 19331 ft 479 kts 70°
2026-05-09 08:08 40.70972 -72.42117 22179 ft 502 kts 69°
2026-05-09 08:08 40.77644 -72.15452 24659 ft 523 kts 68°
2026-05-09 08:08 40.83322 -71.92519 26513 ft 538 kts 68°
2026-05-09 08:08 40.84852 -71.86287 26987 ft 541 kts 68°
2026-05-09 08:09 40.87393 -71.75903 27753 ft 547 kts 68°
2026-05-09 08:09 40.94533 -71.46481 30579 ft 547 kts 67°
2026-05-09 08:09 41.01569 -71.17233 32883 ft 547 kts 68°
2026-05-09 08:09 41.08574 -70.87674 34535 ft 555 kts 68°
2026-05-09 08:10 41.15509 -70.58007 35031 ft 561 kts 69°
2026-05-09 08:10 41.31042 -69.98906 35145 ft 555 kts 50°
2026-05-09 08:10 41.45407 -69.75928 35658 ft 533 kts 40°
2026-05-09 08:11 41.59712 -69.53691 35662 ft 532 kts 41°
2026-05-09 08:11 41.88167 -69.08803 35645 ft 534 kts 42°
2026-05-09 08:12 42.31106 -68.39759 35630 ft 532 kts 43°
2026-05-09 08:12 42.59244 -67.93633 35728 ft 531 kts 44°
2026-05-09 08:13 42.86075 -67.48966 35717 ft 530 kts 45°
2026-05-09 08:13 43.13390 -67.02784 35715 ft 528 kts 46°
2026-05-09 08:14 43.39804 -66.54249 35697 ft 526 kts 49°
2026-05-09 08:14 43.65484 -66.06063 35694 ft 523 kts 50°
2026-05-09 08:15 43.90669 -65.58023 35707 ft 524 kts 51°
2026-05-09 08:15 44.15602 -65.09676 35677 ft 524 kts 51°
2026-05-09 08:16 44.39290 -64.62992 35675 ft 523 kts 52°
2026-05-09 08:16 44.51449 -64.38736 35955 ft 521 kts 52°
2026-05-09 08:16 44.63596 -64.14294 35952 ft 521 kts 53°
2026-05-09 08:17 44.87715 -63.65132 35968 ft 520 kts 54°
2026-05-09 08:17 45.11702 -63.15398 35944 ft 518 kts 55°
2026-05-09 08:18 45.35514 -62.65157 35932 ft 519 kts 56°
2026-05-09 08:18 45.59036 -62.14630 35932 ft 519 kts 56°
2026-05-09 08:19 45.82502 -61.63316 36706 ft 520 kts 57°
2026-05-09 08:19 45.94170 -61.37446 36918 ft 522 kts 58°
2026-05-09 08:19 46.05815 -61.11389 36894 ft 522 kts 58°
2026-05-09 08:20 46.28962 -60.58860 36894 ft 523 kts 59°
2026-05-09 08:20 46.52081 -60.05415 36874 ft 524 kts 60°
2026-05-09 08:21 46.74972 -59.51437 36876 ft 524 kts 61°
2026-05-09 08:21 46.97418 -58.97461 36858 ft 524 kts 62°
2026-05-09 08:22 47.19978 -58.42106 36837 ft 525 kts 62°
2026-05-09 08:22 47.41618 -57.87941 36811 ft 526 kts 64°
2026-05-09 08:23 47.63240 -57.32699 36803 ft 525 kts 64°
2026-05-09 08:23 47.84960 -56.76055 36754 ft 527 kts 66°
2026-05-09 08:24 48.04776 -56.23287 36711 ft 526 kts 67°
2026-05-09 08:24 48.25843 -55.66007 36711 ft 527 kts 68°
2026-05-09 08:25 48.46570 -55.08436 36645 ft 527 kts 70°
2026-05-09 08:25 48.67044 -54.50260 36720 ft 528 kts 71°
2026-05-09 08:26 48.87169 -53.91792 36693 ft 530 kts 72°
2026-05-09 08:26 49.07308 -53.31896 36693 ft 530 kts 73°
2026-05-09 08:27 49.27227 -52.71228 36679 ft 532 kts 73°
2026-05-09 08:27 49.46925 -52.09782 36674 ft 532 kts 73°
2026-05-09 08:28 49.63895 -51.46240 36679 ft 529 kts 77°
2026-05-09 08:28 49.79882 -50.82685 36673 ft 530 kts 77°
2026-05-09 08:29 49.95795 -50.17585 36703 ft 526 kts 77°
2026-05-09 08:29 50.02327 -49.84490 36727 ft 515 kts 86°
2026-05-09 08:29 50.07064 -49.50808 36748 ft 514 kts 86°
2026-05-09 08:30 50.16306 -48.83800 36789 ft 507 kts 86°
2026-05-09 08:30 50.24999 -48.17780 36803 ft 501 kts 85°
2026-05-09 08:31 50.33361 -47.51195 36845 ft 502 kts 85°
2026-05-09 08:31 50.41375 -46.84116 36933 ft 505 kts 86°
2026-05-09 08:32 50.49024 -46.16593 36978 ft 506 kts 86°
2026-05-09 08:33 50.59550 -45.16983 37060 ft 497 kts 86°
2026-05-09 08:33 50.66080 -44.50500 37119 ft 497 kts 86°
2026-05-09 08:34 50.72227 -43.83853 37148 ft 494 kts 85°
2026-05-09 08:34 50.77937 -43.17579 37212 ft 496 kts 85°
2026-05-09 08:35 50.83331 -42.50595 37237 ft 496 kts 85°
2026-05-09 08:35 50.88398 -41.82613 37279 ft 495 kts 86°
2026-05-09 08:36 50.93069 -41.14374 37309 ft 494 kts 86°
2026-05-09 08:36 50.97294 -40.46968 37348 ft 492 kts 86°
2026-05-09 08:37 51.02751 -39.80658 37381 ft 488 kts 76°
2026-05-09 08:37 51.11688 -39.17463 37418 ft 486 kts 77°
2026-05-09 08:38 51.20510 -38.51924 37458 ft 481 kts 76°
2026-05-09 08:38 51.28869 -37.86952 37480 ft 475 kts 76°
2026-05-09 08:39 51.36796 -37.22323 37497 ft 470 kts 76°
2026-05-09 08:39 51.44261 -36.58435 37531 ft 468 kts 76°
2026-05-09 08:40 51.51350 -35.94587 37556 ft 464 kts 76°
2026-05-09 08:40 51.58048 -35.30912 37559 ft 459 kts 76°
2026-05-09 08:41 51.64361 -34.67557 37562 ft 456 kts 76°
2026-05-09 08:41 51.70293 -34.04414 37565 ft 454 kts 76°
2026-05-09 08:42 51.75861 -33.41436 37583 ft 452 kts 76°
2026-05-09 08:42 51.81013 -32.79212 37607 ft 447 kts 76°
2026-05-09 08:43 51.85862 -32.16564 37593 ft 448 kts 76°
2026-05-09 08:43 51.90386 -31.53661 37597 ft 446 kts 76°
2026-05-09 08:44 51.94561 -30.90861 37600 ft 447 kts 76°
2026-05-09 08:44 51.98411 -30.27749 37603 ft 447 kts 77°
2026-05-09 08:45 52.04643 -29.67524 37628 ft 438 kts 69°
2026-05-09 08:45 52.12970 -29.07836 37601 ft 436 kts 70°
2026-05-09 08:46 52.21067 -28.47342 37590 ft 432 kts 70°
2026-05-09 08:46 52.28828 -27.86836 37587 ft 431 kts 71°
2026-05-09 08:47 52.36244 -27.26409 37617 ft 430 kts 71°
2026-05-09 08:47 52.43253 -26.66619 37589 ft 424 kts 71°
2026-05-09 08:48 52.49847 -26.07738 37564 ft 425 kts 71°
2026-05-09 08:48 52.56174 -25.48380 37573 ft 425 kts 72°
2026-05-09 08:49 52.62309 -24.87792 37561 ft 426 kts 72°
2026-05-09 08:49 52.68120 -24.27191 37562 ft 426 kts 72°
2026-05-09 08:50 52.73620 -23.66467 37553 ft 429 kts 73°
2026-05-09 08:50 52.78862 -23.04920 37536 ft 431 kts 74°
2026-05-09 08:51 52.83835 -22.42587 37528 ft 435 kts 75°
2026-05-09 08:51 52.88474 -21.80184 37527 ft 439 kts 76°
2026-05-09 08:52 52.92792 -21.17575 37509 ft 442 kts 76°
2026-05-09 08:52 52.95573 -20.74407 37512 ft 442 kts 77°
2026-05-09 08:53 52.97586 -20.41511 37509 ft 445 kts 78°
2026-05-09 08:53 53.00449 -19.77391 37492 ft 451 kts 82°
2026-05-09 08:54 53.01499 -19.12819 37479 ft 454 kts 83°
2026-05-09 08:54 53.02225 -18.47499 37468 ft 465 kts 85°
2026-05-09 08:55 53.02573 -17.81345 37448 ft 468 kts 86°
2026-05-09 08:55 53.02557 -17.13543 37433 ft 469 kts 87°
2026-05-09 08:56 53.02157 -16.45122 37428 ft 471 kts 87°
2026-05-09 08:56 53.01358 -15.76451 37398 ft 473 kts 88°
2026-05-09 08:57 53.00180 -15.08811 37384 ft 476 kts 88°
2026-05-09 08:57 53.00096 -14.39664 37369 ft 481 kts 87°
2026-05-09 08:58 52.97900 -13.69313 37349 ft 489 kts 95°
2026-05-09 08:58 52.92717 -12.98420 37336 ft 493 kts 96°
2026-05-09 08:59 52.87092 -12.27297 37314 ft 493 kts 97°
2026-05-09 08:59 52.81099 -11.56958 37301 ft 494 kts 98°
2026-05-09 09:00 52.74720 -10.87177 37277 ft 493 kts 100°
2026-05-09 09:00 52.68068 -10.18957 37274 ft 490 kts 100°
2026-05-09 09:01 52.61788 -9.58128 37250 ft 489 kts 101°
2026-05-09 09:01 52.59795 -9.39425 37241 ft 482 kts 103°
2026-05-09 09:02 52.57043 -9.14249 36171 ft 479 kts 101°
2026-05-09 09:02 52.56449 -9.08849 37343 ft 481 kts 103°
2026-05-09 09:02 52.55851 -9.03415 37290 ft 482 kts 103°
2026-05-09 09:03 52.54648 -8.92592 37264 ft 480 kts 103°
2026-05-09 09:03 52.54039 -8.87169 36920 ft 480 kts 103°
2026-05-09 09:03 52.53426 -8.81804 37347 ft 478 kts 103°
2026-05-09 09:04 52.52215 -8.71030 37251 ft 480 kts 103°
2026-05-09 09:04 52.47450 -8.29771 37220 ft 480 kts 103°
2026-05-09 09:05 52.39926 -7.67219 37210 ft 475 kts 103°
2026-05-09 09:05 52.32036 -7.04570 37208 ft 474 kts 104°
2026-05-09 09:06 52.23803 -6.42102 37176 ft 472 kts 105°
2026-05-09 09:06 52.15327 -5.78681 37168 ft 473 kts 101°
2026-05-09 09:07 52.09307 -5.14510 37155 ft 472 kts 102°
2026-05-09 09:07 52.02974 -4.51021 37147 ft 473 kts 102°
2026-05-09 09:08 51.96320 -3.87835 37121 ft 472 kts 103°
2026-05-09 09:08 51.89405 -3.25554 37151 ft 469 kts 104°
2026-05-09 09:09 51.83844 -2.77617 37133 ft 468 kts 104°
2026-05-09 09:09 51.82284 -2.64500 37135 ft 468 kts 104°
2026-05-09 09:10 51.81042 -2.54154 37131 ft 468 kts 105°
2026-05-09 09:10 51.79792 -2.43816 37130 ft 468 kts 105°
2026-05-09 09:11 51.78533 -2.33474 37118 ft 469 kts 105°
2026-05-09 09:11 51.73103 -1.89677 37116 ft 467 kts 105°
2026-05-09 09:12 51.67083 -1.44585 37113 ft 466 kts 107°
2026-05-09 09:12 51.58757 -0.86459 37113 ft 469 kts 107°
2026-05-09 09:13 51.51402 -0.36798 37126 ft 468 kts 107°
2026-05-09 09:13 51.42716 0.19897 37131 ft 470 kts 107°
2026-05-09 09:14 51.33808 0.76066 37131 ft 471 kts 108°
2026-05-09 09:14 51.24234 1.34407 37132 ft 471 kts 108°
2026-05-09 09:15 51.20403 1.57196 37132 ft 472 kts 108°
2026-05-09 09:15 51.18685 1.67306 37119 ft 472 kts 108°
2026-05-09 09:16 51.16976 1.77317 37117 ft 472 kts 108°
2026-05-09 09:16 51.14443 1.92085 37095 ft 472 kts 107°
2026-05-09 09:17 51.13097 2.02354 37104 ft 475 kts 101°
2026-05-09 09:17 51.12392 2.12844 37106 ft 476 kts 97°
2026-05-09 09:18 51.11876 2.23303 37111 ft 476 kts 97°
2026-05-09 09:18 51.11346 2.33831 37115 ft 476 kts 97°
2026-05-09 09:19 51.10799 2.44358 37108 ft 477 kts 97°
2026-05-09 09:19 51.10243 2.54887 37113 ft 477 kts 97°
2026-05-09 09:20 51.09370 2.65333 37121 ft 475 kts 103°
2026-05-09 09:20 51.07819 2.75458 37118 ft 473 kts 108°
2026-05-09 09:21 51.05967 2.85515 37116 ft 473 kts 108°
2026-05-09 09:21 51.04100 2.95584 37122 ft 475 kts 108°
2026-05-09 09:22 51.02230 3.05653 37123 ft 475 kts 108°
2026-05-09 09:22 51.00352 3.15714 37117 ft 475 kts 108°
2026-05-09 09:23 50.98478 3.25696 37111 ft 475 kts 109°
2026-05-09 09:23 50.96577 3.35748 37106 ft 475 kts 108°
2026-05-09 09:24 50.94670 3.45813 37106 ft 476 kts 108°
2026-05-09 09:24 50.92754 3.55876 37107 ft 476 kts 108°
2026-05-09 09:25 50.90842 3.65852 37109 ft 476 kts 108°
2026-05-09 09:25 50.88923 3.75904 37109 ft 476 kts 108°
2026-05-09 09:26 50.86994 3.85965 37116 ft 477 kts 108°
2026-05-09 09:26 50.85060 3.96030 37117 ft 477 kts 108°
2026-05-09 09:27 50.83104 4.06156 37121 ft 477 kts 108°
2026-05-09 09:27 50.81163 4.16145 37122 ft 477 kts 108°
2026-05-09 09:28 50.79198 4.26205 37122 ft 477 kts 108°
2026-05-09 09:28 50.77241 4.36168 37126 ft 477 kts 109°
2026-05-09 09:29 50.75258 4.46213 37125 ft 476 kts 109°
2026-05-09 09:29 50.73275 4.56207 37123 ft 476 kts 109°
2026-05-09 09:30 50.71298 4.66124 37125 ft 476 kts 109°
2026-05-09 09:30 50.69287 4.76158 37119 ft 479 kts 108°
2026-05-09 09:31 50.65361 4.95597 37118 ft 479 kts 109°
2026-05-09 09:32 50.59165 5.25628 37118 ft 482 kts 108°
2026-05-09 09:32 50.54915 5.46012 37111 ft 482 kts 109°
2026-05-09 09:33 50.50827 5.65870 37106 ft 483 kts 106°
2026-05-09 09:33 50.47153 5.86141 37104 ft 482 kts 106°
2026-05-09 09:34 50.41427 6.17301 37094 ft 484 kts 106°
2026-05-09 09:34 50.30247 6.76685 37111 ft 486 kts 106°
2026-05-09 09:36 49.91354 8.62659 37136 ft 495 kts 119°
2026-05-09 09:36 49.89630 8.67283 37136 ft 495 kts 119°
2026-05-09 09:37 49.86189 8.76534 37124 ft 494 kts 119°
2026-05-09 09:37 49.82749 8.85788 37130 ft 495 kts 119°
2026-05-09 09:38 49.79307 8.95013 37129 ft 496 kts 119°
2026-05-09 09:38 49.75866 9.04213 37128 ft 496 kts 119°
2026-05-09 09:39 49.72392 9.13480 37130 ft 498 kts 120°
2026-05-09 09:39 49.68906 9.22746 37127 ft 498 kts 120°
2026-05-09 09:40 49.65413 9.31994 37127 ft 498 kts 120°
2026-05-09 09:40 49.61704 9.41000 37126 ft 498 kts 125°
2026-05-09 09:40 49.59626 9.45232 36810 ft 499 kts 128°
2026-05-09 09:41 49.57379 9.49301 36269 ft 497 kts 131°
2026-05-09 09:41 49.55066 9.53344 35728 ft 494 kts 131°
2026-05-09 09:41 49.52797 9.57299 35225 ft 492 kts 131°
2026-05-09 09:41 49.50539 9.61237 34710 ft 490 kts 130°
2026-05-09 09:42 49.48287 9.65166 34223 ft 489 kts 130°
2026-05-09 09:42 49.46036 9.69095 33649 ft 489 kts 130°
2026-05-09 09:42 49.43783 9.73026 33088 ft 490 kts 130°
2026-05-09 09:42 49.41526 9.76956 32520 ft 490 kts 130°
2026-05-09 09:43 49.39269 9.80878 31970 ft 490 kts 129°
2026-05-09 09:43 49.37035 9.84750 31472 ft 490 kts 129°
2026-05-09 09:43 49.34768 9.88665 30942 ft 490 kts 129°
2026-05-09 09:43 49.32500 9.92569 30416 ft 490 kts 129°
2026-05-09 09:44 49.30182 9.96564 29833 ft 491 kts 130°
2026-05-09 09:44 49.27957 10.00395 29233 ft 492 kts 130°
2026-05-09 09:44 49.25676 10.04316 28657 ft 493 kts 130°
2026-05-09 09:44 49.23395 10.08226 28071 ft 490 kts 130°
2026-05-09 09:45 49.21129 10.12103 27514 ft 486 kts 130°
2026-05-09 09:45 49.18884 10.15941 26965 ft 481 kts 130°
2026-05-09 09:45 49.16662 10.19738 26403 ft 477 kts 130°
2026-05-09 09:45 49.14484 10.23462 25812 ft 474 kts 131°
2026-05-09 09:46 49.12256 10.27160 25213 ft 471 kts 133°
2026-05-09 09:46 49.10004 10.30772 24637 ft 467 kts 133°
2026-05-09 09:46 49.07761 10.34343 24079 ft 464 kts 133°
2026-05-09 09:46 49.05539 10.37888 23465 ft 461 kts 133°
2026-05-09 09:47 49.03334 10.41416 22785 ft 457 kts 133°
2026-05-09 09:47 49.01148 10.44917 22159 ft 454 kts 133°
2026-05-09 09:47 48.98975 10.48393 21519 ft 451 kts 134°
2026-05-09 09:47 48.96817 10.51834 20901 ft 447 kts 134°
2026-05-09 09:48 48.94670 10.55253 20274 ft 444 kts 134°
2026-05-09 09:48 48.92533 10.58651 19524 ft 440 kts 134°
2026-05-09 09:48 48.90483 10.61909 19025 ft 428 kts 134°
2026-05-09 09:48 48.88439 10.65155 18447 ft 420 kts 134°
2026-05-09 09:49 48.86433 10.68341 17782 ft 415 kts 134°
2026-05-09 09:49 48.84439 10.71500 17180 ft 413 kts 135°
2026-05-09 09:49 48.82448 10.74647 16563 ft 412 kts 135°
2026-05-09 09:49 48.80468 10.77773 15940 ft 410 kts 135°
2026-05-09 09:50 48.78492 10.80881 15319 ft 408 kts 135°
2026-05-09 09:50 48.76487 10.83919 14726 ft 406 kts 139°
2026-05-09 09:50 48.74292 10.86601 14133 ft 403 kts 144°
2026-05-09 09:50 48.72085 10.89112 13525 ft 401 kts 144°
2026-05-09 09:51 48.69865 10.91632 12859 ft 394 kts 144°
2026-05-09 09:51 48.67707 10.94111 12315 ft 384 kts 144°
2026-05-09 09:51 48.65588 10.96569 11622 ft 379 kts 144°
2026-05-09 09:51 48.63539 10.98964 11255 ft 365 kts 144°
2026-05-09 09:52 48.61574 11.01270 10981 ft 350 kts 144°
2026-05-09 09:52 48.59676 11.03500 10567 ft 341 kts 144°
2026-05-09 09:52 48.57831 11.05667 10274 ft 329 kts 144°
2026-05-09 09:52 48.56063 11.07745 10137 ft 313 kts 144°
2026-05-09 09:53 48.54372 11.09730 9789 ft 306 kts 144°
2026-05-09 09:53 48.52702 11.11683 9405 ft 300 kts 144°
2026-05-09 09:53 48.51075 11.13586 9033 ft 291 kts 144°
2026-05-09 09:53 48.49499 11.15430 8764 ft 282 kts 144°
2026-05-09 09:54 48.47966 11.17224 8385 ft 278 kts 143°
2026-05-09 09:54 48.46423 11.19027 7866 ft 278 kts 144°
2026-05-09 09:54 48.44897 11.20805 7464 ft 276 kts 142°
2026-05-09 09:54 48.43453 11.22657 7067 ft 274 kts 139°
2026-05-09 09:55 48.42040 11.24557 6664 ft 271 kts 139°
2026-05-09 09:55 48.40632 11.26439 6225 ft 269 kts 139°
2026-05-09 09:55 48.39238 11.28296 5845 ft 266 kts 139°
2026-05-09 09:55 48.37851 11.30124 5393 ft 264 kts 139°
2026-05-09 09:56 48.36569 11.32062 5020 ft 259 kts 125°
2026-05-09 09:56 48.35619 11.34316 4975 ft 246 kts 120°
2026-05-09 09:56 48.34800 11.36485 4966 ft 230 kts 119°
2026-05-09 09:56 48.34091 11.38617 4960 ft 227 kts 109°
2026-05-09 09:57 48.33699 11.40932 4978 ft 229 kts 97°
2026-05-09 09:57 48.33642 11.43328 4976 ft 230 kts 86°
2026-05-09 09:57 48.33838 11.45718 5005 ft 229 kts 82°
2026-05-09 09:57 48.34082 11.48026 4979 ft 217 kts 82°
2026-05-09 09:58 48.34290 11.50210 4923 ft 205 kts 83°
2026-05-09 09:58 48.34465 11.52325 4689 ft 204 kts 84°
2026-05-09 09:58 48.34623 11.54448 4396 ft 204 kts 84°
2026-05-09 09:58 48.34774 11.56574 4136 ft 204 kts 84°
2026-05-09 09:59 48.34926 11.58700 3856 ft 203 kts 84°
2026-05-09 09:59 48.35078 11.60788 3638 ft 197 kts 84°
2026-05-09 09:59 48.35228 11.62822 3365 ft 188 kts 83°
2026-05-09 09:59 48.35369 11.64709 3081 ft 176 kts 83°
2026-05-09 10:00 48.35499 11.66452 2843 ft 162 kts 83°
2026-05-09 10:00 48.35622 11.68108 2642 ft 154 kts 82°
2026-05-09 10:00 48.35743 11.69716 2451 ft 153 kts 82°
2026-05-09 10:00 48.35866 11.71326 2260 ft 153 kts 83°
2026-05-09 10:01 48.35986 11.72891 2013 ft 152 kts 84°
2026-05-09 10:01 48.36106 11.74465 1808 ft 152 kts 84°
2026-05-09 10:01 48.36219 11.76036 1629 ft 150 kts 83°
2026-05-09 10:01 48.36339 11.77579 1481 ft 136 kts 83°
2026-05-09 10:02 48.36427 11.78712 1484 ft 84 kts 83°
2026-05-09 10:02 48.36479 11.79392 1482 ft 55 kts 83°
2026-05-09 10:02 48.36509 11.79817 1494 ft 31 kts 89°
2026-05-09 10:02 48.36473 11.80103 1486 ft 25 kts 112°
2026-05-09 10:03 48.36416 11.80308 1486 ft 15 kts 113°
2026-05-09 10:03 48.36377 11.80445 1482 ft 9 kts 113°
2026-05-09 10:03 48.36360 11.80498 1482 ft 4 kts 122°
2026-05-09 10:03 48.36345 11.80525 1477 ft 0 kts 137°
2026-05-09 10:04 48.36343 11.80528 1480 ft 1 kts 143°
2026-05-09 10:04 48.36324 11.80531 1483 ft 5 kts 198°
2026-05-09 10:04 48.36288 11.80414 1489 ft 16 kts 259°
2026-05-09 10:04 48.36271 11.80220 1489 ft 21 kts 263°
2026-05-09 10:05 48.36254 11.79993 1494 ft 23 kts 263°
2026-05-09 10:05 48.36236 11.79763 1479 ft 19 kts 263°
2026-05-09 10:05 48.36223 11.79594 1482 ft 14 kts 264°
2026-05-09 10:05 48.36215 11.79513 1490 ft 8 kts 248°
2026-05-09 10:06 48.36169 11.79469 1482 ft 9 kts 193°
2026-05-09 10:06 48.36105 11.79477 1479 ft 6 kts 173°
2026-05-09 10:06 48.36097 11.79479 1481 ft 0 kts 173°
2026-05-09 10:07 48.36096 11.79479 1494 ft 0 kts 173°
2026-05-09 10:08 48.36058 11.79486 1479 ft 8 kts 173°
2026-05-09 10:08 48.36003 11.79495 1479 ft 7 kts 173°
2026-05-09 10:08 48.35993 11.79496 1494 ft 0 kts 173°
2026-05-09 10:11 48.35937 11.79506 1488 ft 12 kts 173°
2026-05-09 10:11 48.35921 11.79509 1483 ft 0 kts 173°
2026-05-09 10:12 48.35912 11.79510 1481 ft 4 kts 173°
2026-05-09 10:13 48.35863 11.79519 1487 ft 9 kts 173°
2026-05-09 10:13 48.35789 11.79531 1479 ft 12 kts 173°
2026-05-09 10:13 48.35720 11.79544 1482 ft 7 kts 173°
2026-05-09 10:13 48.35694 11.79565 1477 ft 5 kts 114°
2026-05-09 10:14 48.35689 11.79616 1481 ft 4 kts 90°
2026-05-09 10:14 48.35691 11.79665 1487 ft 5 kts 85°
2026-05-09 10:14 48.35692 11.79673 1489 ft 0 kts 84°
2026-05-09 10:14 48.35693 11.79687 1487 ft 0 kts 84°
2026-05-09 10:15 48.35693 11.79689 1488 ft 0 kts 84°